EW8080 Weather Reports


Display with metric or nautical units.
time (UTC)temp
F
wind
direction
speed
MPH
gust
MPH
rain 1hr
in
rain 24hr
in
rain mn
in
humidity
%
barometer
mb
20260503032003 50 193 2.0 4.0 0.04 0.21 0.21 91 1010.1
20260503031003 50 238 1.0 6.0 0.04 0.20 0.20 91 1009.9
20260503030003 50 161 3.0 7.0 0.04 0.20 0.20 91 1010.1
20260503025003 50 165 4.0 7.0 0.04 0.19 0.19 91 1010.4
20260503024003 50 166 5.0 8.0 0.06 0.19 0.19 91 1010.4
20260503023024 50 170 5.0 8.0 0.07 0.18 0.18 91 1010.5
20260503022003 50 157 4.0 8.0 0.08 0.18 0.18 91 1010.5
20260503021024 50 154 5.0 8.0 0.09 0.17 0.17 91 1010.5
20260503020003 50 173 7.0 8.0 0.08 0.16 0.16 90 1011.0
20260503015003 50 148 3.0 7.0 0.08 0.15 0.15 90 1010.7
20260503014003 50 164 6.0 7.0 0.07 0.13 0.13 90 1010.9
20260503013003 50 182 3.0 4.0 0.06 0.11 0.11 91 1010.9
20260503012003 50 149 2.0 5.0 0.06 0.10 0.10 91 1010.9
20260503011004 50 193 1.0 5.0 0.05 0.08 0.08 90 1010.9
20260503010025 50 162 4.0 6.0 0.05 0.08 0.08 90 1011.0
20260503005024 50 113 4.0 8.0 0.04 0.07 0.07 91 1010.9
20260503004004 50 192 4.0 8.0 0.03 0.06 0.06 91 1011.2
20260503003003 51 186 4.0 7.0 0.02 0.05 0.05 89 1011.0
20260503002003 51 176 5.0 7.0 0.02 0.04 0.04 89 1011.0
20260503001003 51 217 4.0 11.0 0.02 0.03 0.03 90 1011.0
20260503000003 50 213 3.0 11.0 0.02 0.03 0.03 90 1010.9
20260502235025 51 228 5.0 11.0 0.02 0.03 0.03 91 1011.0
20260502234003 51 199 4.0 11.0 0.03 0.03 0.03 90 1011.0
20260502233004 51 174 7.0 10.0 0.03 0.03 0.03 88 1010.9
20260502232003 51 182 6.0 11.0 0.02 0.02 0.02 88 1010.8
20260502231003 51 206 5.0 11.0 0.01 0.01 0.01 87 1011.0
20260502230003 52 202 5.0 10.0 0.00 0.00 0.00 87 1011.0
20260502225003 52 215 7.0 10.0 0.00 0.00 0.00 86 1010.9
20260502224003 52 204 7.0 10.0 0.00 0.00 0.00 83 1010.8
20260502223024 52 197 8.0 16.0 0.00 0.00 0.00 82 1010.7
20260502222003 53 198 6.0 16.0 0.00 0.00 0.00 81 1010.7
20260502221004 53 197 6.0 14.0 0.00 0.00 0.00 80 1010.5
20260502220003 53 187 11.0 14.0 0.00 0.00 0.00 80 1010.6
20260502215024 53 206 5.0 10.0 0.00 0.00 0.00 79 1010.7
20260502214003 54 196 7.0 12.0 0.00 0.00 0.00 79 1010.9
20260502213003 54 203 6.0 12.0 0.00 0.00 0.00 79 1010.8
20260502212002 54 216 6.0 15.0 0.00 0.00 0.00 79 1011.0
20260502211003 54 190 7.0 15.0 0.00 0.00 0.00 78 1011.0
20260502210003 54 208 9.0 15.0 0.00 0.00 0.00 77 1011.0
20260502205024 54 225 7.0 17.0 0.00 0.00 0.00 77 1011.1
20260502204003 54 226 7.0 17.0 0.00 0.00 0.00 76 1010.9
20260502203003 54 203 8.0 17.0 0.00 0.00 0.00 75 1011.1
20260502202003 55 211 9.0 15.0 0.00 0.00 0.00 74 1011.3
20260502201003 55 198 8.0 17.0 0.00 0.00 0.00 74 1011.2
20260502200003 55 179 9.0 17.0 0.00 0.00 0.00 72 1011.4
20260502195003 56 199 8.0 17.0 0.00 0.00 0.00 72 1011.6
20260502193004 56 206 7.0 20.0 0.00 0.00 0.00 72 1011.6
20260502192003 56 186 9.0 19.0 0.00 0.00 0.00 71 1011.6
20260502191003 56 209 9.0 20.0 0.00 0.00 0.00 71 1011.9
20260502190004 56 186 14.0 20.0 0.00 0.00 0.00 71 1012.0
20260502185024 57 216 11.0 23.0 0.00 0.00 0.00 73 1012.2
20260502184003 57 187 13.0 23.0 0.00 0.00 0.00 71 1012.3
20260502183003 58 204 10.0 23.0 0.00 0.00 0.00 70 1011.9
20260502182004 58 213 9.0 24.0 0.00 0.00 0.00 68 1012.3
20260502181004 59 177 10.0 24.0 0.00 0.00 0.00 67 1012.4
20260502164003 58 170 15.0 21.0 0.00 0.00 0.00 65 1012.1
20260502163003 58 184 10.0 17.0 0.00 0.00 0.00 65 1012.3
20260502162003 58 192 8.0 20.0 0.00 0.00 0.00 68 1012.3
20260502161024 58 204 10.0 20.0 0.00 0.00 0.00 67 1012.4
20260502152003 58 192 11.0 20.0 0.00 0.00 0.00 67 1013.0
20260502151003 59 208 11.0 20.0 0.00 0.00 0.00 66 1012.8
20260502123003 56 221 8.0 17.0 0.00 0.00 0.00 72 1013.0
20260502122003 56 202 8.0 17.0 0.00 0.00 0.00 73 1012.8
20260502121003 54 202 9.0 13.0 0.00 0.00 0.00 76 1012.9
20260502115003 52 217 6.0 11.0 0.00 0.00 0.00 79 1012.8
20260502114003 51 187 8.0 15.0 0.00 0.00 0.00 80 1012.7
20260502113003 50 196 6.0 15.0 0.00 0.00 0.00 82 1012.7
20260502112024 50 208 8.0 10.0 0.00 0.00 0.00 82 1012.8
20260502111004 50 222 4.0 12.0 0.00 0.00 0.00 83 1012.7
20260502110024 49 216 7.0 13.0 0.00 0.00 0.00 84 1012.8
20260502105024 48 211 6.0 13.0 0.00 0.00 0.00 85 1012.7
20260502104003 47 215 6.0 9.0 0.00 0.00 0.00 85 1012.7
20260502103024 47 207 6.0 13.0 0.00 0.00 0.00 85 1012.5
20260502102003 46 204 7.0 13.0 0.00 0.00 0.00 85 1012.6
20260502101003 46 214 6.0 10.0 0.00 0.00 0.00 83 1012.8
20260502091003 45 196 3.0 7.0 0.00 0.00 0.00 81 1012.1
20260502071003 45 133 2.0 4.0 0.00 0.00 0.00 77 1012.4
20260502070024 45 141 2.0 3.0 0.00 0.00 0.00 76 1012.2
20260502065003 45 161 2.0 3.0 0.00 0.00 0.00 76 1012.3
20260502064003 46 182 3.0 3.0 0.00 0.00 0.00 76 1012.5
20260502063004 45 145 2.0 3.0 0.00 0.00 0.00 76 1012.5
20260502062003 46 143 1.0 5.0 0.00 0.00 0.00 75 1012.3
20260502061003 46 178 0.0 5.0 0.00 0.00 0.00 75 1012.3
20260502060003 46 204 4.0 6.0 0.00 0.00 0.00 76 1012.6
20260502055003 46 156 3.0 6.0 0.00 0.00 0.00 75 1012.6
20260502054003 46 186 3.0 5.0 0.00 0.00 0.00 75 1012.7
20260502053003 46 166 2.0 5.0 0.00 0.00 0.00 75 1012.5
20260502052024 46 107 2.0 5.0 0.00 0.00 0.00 74 1012.5
20260502051003 47 81 4.0 5.0 0.00 0.00 0.00 73 1012.5
20260502050003 48 101 3.0 5.0 0.00 0.00 0.00 73 1012.5
20260502045003 48 89 2.0 6.0 0.00 0.00 0.00 72 1012.8
20260502044003 48 164 2.0 6.0 0.00 0.00 0.00 71 1012.5
20260502043024 49 211 4.0 6.0 0.00 0.00 0.00 70 1012.6
20260502042024 49 215 3.0 7.0 0.00 0.00 0.00 70 1012.4
20260502041003 49 219 3.0 7.0 0.00 0.00 0.00 70 1012.5
20260502040003 49 225 4.0 6.0 0.00 0.00 0.00 70 1012.3
20260502035004 49 236 5.0 6.0 0.00 0.00 0.00 69 1012.5
20260502034024 49 230 5.0 6.0 0.00 0.00 0.00 69 1012.6
20260502033024 49 239 4.0 8.0 0.00 0.00 0.00 69 1012.4